Year,Month,Day,Hour,Minute,Value (Times are PST for insolation in W/m^2)
2021,10,01,00,00,0.00
2021,10,01,00,01,0.00
2021,10,01,00,02,0.00
2021,10,01,00,03,0.00
2021,10,01,00,04,0.00
2021,10,01,00,05,0.00
2021,10,01,00,06,0.00
2021,10,01,00,07,0.00
2021,10,01,00,08,0.00
2021,10,01,00,09,0.00
2021,10,01,00,10,0.00
2021,10,01,00,11,0.00
2021,10,01,00,12,0.00
2021,10,01,00,13,0.00
2021,10,01,00,14,0.00
2021,10,01,00,15,0.00
2021,10,01,00,16,0.00
2021,10,01,00,17,0.00
2021,10,01,00,18,0.00
2021,10,01,00,19,0.00
2021,10,01,00,20,0.00
2021,10,01,00,21,0.00
2021,10,01,00,22,0.00
2021,10,01,00,23,0.00
2021,10,01,00,24,0.00
2021,10,01,00,25,0.00
2021,10,01,00,26,0.00
2021,10,01,00,27,0.00
2021,10,01,00,28,0.00
2021,10,01,00,29,0.00
2021,10,01,00,30,0.00
2021,10,01,00,31,0.00
2021,10,01,00,32,0.00
2021,10,01,00,33,0.00
2021,10,01,00,34,0.00
2021,10,01,00,35,0.00
2021,10,01,00,36,0.00
2021,10,01,00,37,0.00
2021,10,01,00,38,0.00
2021,10,01,00,39,0.00
2021,10,01,00,40,0.00
2021,10,01,00,41,0.00
2021,10,01,00,42,0.00
2021,10,01,00,43,0.00
2021,10,01,00,44,0.00
2021,10,01,00,45,0.00
2021,10,01,00,46,0.00
2021,10,01,00,47,0.00
2021,10,01,00,48,0.00
2021,10,01,00,49,0.00
2021,10,01,00,50,0.00
2021,10,01,00,51,0.00
2021,10,01,00,52,0.00
2021,10,01,00,53,0.00
2021,10,01,00,54,0.00
2021,10,01,00,55,0.00
2021,10,01,00,56,0.00
2021,10,01,00,57,0.00
2021,10,01,00,58,0.00
2021,10,01,00,59,0.00
2021,10,01,01,00,0.00
2021,10,01,01,01,0.00
2021,10,01,01,02,0.00
2021,10,01,01,03,0.00
2021,10,01,01,04,0.00
2021,10,01,01,05,0.00
2021,10,01,01,06,0.00
2021,10,01,01,07,0.00
2021,10,01,01,08,0.00
2021,10,01,01,09,0.00
2021,10,01,01,10,0.00
2021,10,01,01,11,0.00
2021,10,01,01,12,0.00
2021,10,01,01,13,0.00
2021,10,01,01,14,0.00
2021,10,01,01,15,0.00
2021,10,01,01,16,0.00
2021,10,01,01,17,0.00
2021,10,01,01,18,0.00
2021,10,01,01,19,0.00
2021,10,01,01,20,0.00
2021,10,01,01,21,0.00
2021,10,01,01,22,0.00
2021,10,01,01,23,0.00
2021,10,01,01,24,0.00
2021,10,01,01,25,0.00
2021,10,01,01,26,0.00
2021,10,01,01,27,0.00
2021,10,01,01,28,0.00
2021,10,01,01,29,0.00
2021,10,01,01,30,0.00
2021,10,01,01,31,0.00
2021,10,01,01,32,0.00
2021,10,01,01,33,0.00
2021,10,01,01,34,0.00
2021,10,01,01,35,0.00
2021,10,01,01,36,0.00
2021,10,01,01,37,0.00
2021,10,01,01,38,0.00
2021,10,01,01,39,0.00
2021,10,01,01,40,0.00
2021,10,01,01,41,0.00
2021,10,01,01,42,0.00
2021,10,01,01,43,0.00
2021,10,01,01,44,0.00
2021,10,01,01,45,0.00
2021,10,01,01,46,0.00
2021,10,01,01,47,0.00
2021,10,01,01,48,0.00
2021,10,01,01,49,0.00
2021,10,01,01,50,0.00
2021,10,01,01,51,0.00
2021,10,01,01,52,0.00
2021,10,01,01,53,0.00
2021,10,01,01,54,0.00
2021,10,01,01,55,0.00
2021,10,01,01,56,0.00
2021,10,01,01,57,0.00
2021,10,01,01,58,0.00
2021,10,01,01,59,0.00
2021,10,01,02,00,0.00
2021,10,01,02,01,0.00
2021,10,01,02,02,0.00
2021,10,01,02,03,0.00
2021,10,01,02,04,0.00
2021,10,01,02,05,0.00
2021,10,01,02,06,0.00
2021,10,01,02,07,0.00
2021,10,01,02,08,0.00
2021,10,01,02,09,0.00
2021,10,01,02,10,0.00
2021,10,01,02,11,0.00
2021,10,01,02,12,0.00
2021,10,01,02,13,0.00
2021,10,01,02,14,0.00
2021,10,01,02,15,0.00
2021,10,01,02,16,0.00
2021,10,01,02,17,0.00
2021,10,01,02,18,0.00
2021,10,01,02,19,0.00
2021,10,01,02,20,0.00
2021,10,01,02,21,0.00
2021,10,01,02,22,0.00
2021,10,01,02,23,0.00
2021,10,01,02,24,0.00
2021,10,01,02,25,0.00
2021,10,01,02,26,0.00
2021,10,01,02,27,0.00
2021,10,01,02,28,0.00
2021,10,01,02,29,0.00
2021,10,01,02,30,0.00
2021,10,01,02,31,0.00
2021,10,01,02,32,0.00
2021,10,01,02,33,0.00
2021,10,01,02,34,0.00
2021,10,01,02,35,0.00
2021,10,01,02,36,0.00
2021,10,01,02,37,0.00
2021,10,01,02,38,0.00
2021,10,01,02,39,0.00
2021,10,01,02,40,0.00
2021,10,01,02,41,0.00
2021,10,01,02,42,0.00
2021,10,01,02,43,0.00
2021,10,01,02,44,0.00
2021,10,01,02,45,0.00
2021,10,01,02,46,0.00
2021,10,01,02,47,0.00
2021,10,01,02,48,0.00
2021,10,01,02,49,0.00
2021,10,01,02,50,0.00
2021,10,01,02,51,0.00
2021,10,01,02,52,0.00
2021,10,01,02,53,0.00
2021,10,01,02,54,0.00
2021,10,01,02,55,0.00
2021,10,01,02,56,0.00
2021,10,01,02,57,0.00
2021,10,01,02,58,0.00
2021,10,01,02,59,0.00
2021,10,01,03,00,0.00
2021,10,01,03,01,0.00
2021,10,01,03,02,0.00
2021,10,01,03,03,0.00
2021,10,01,03,04,0.00
2021,10,01,03,05,0.00
2021,10,01,03,06,0.00
2021,10,01,03,07,0.00
2021,10,01,03,08,0.00
2021,10,01,03,09,0.00
2021,10,01,03,10,0.00
2021,10,01,03,11,0.00
2021,10,01,03,12,0.00
2021,10,01,03,13,0.00
2021,10,01,03,14,0.00
2021,10,01,03,15,0.00
2021,10,01,03,16,0.00
2021,10,01,03,17,0.00
2021,10,01,03,18,0.00
2021,10,01,03,19,0.00
2021,10,01,03,20,0.00
2021,10,01,03,21,0.00
2021,10,01,03,22,0.00
2021,10,01,03,23,0.00
2021,10,01,03,24,0.00
2021,10,01,03,25,0.00
2021,10,01,03,26,0.00
2021,10,01,03,27,0.00
2021,10,01,03,28,0.00
2021,10,01,03,29,0.00
2021,10,01,03,30,0.00
2021,10,01,03,31,0.00
2021,10,01,03,32,0.00
2021,10,01,03,33,0.00
2021,10,01,03,34,0.00
2021,10,01,03,35,0.00
2021,10,01,03,36,0.00
2021,10,01,03,37,0.00
2021,10,01,03,38,0.00
2021,10,01,03,39,0.00
2021,10,01,03,40,0.00
2021,10,01,03,41,0.00
2021,10,01,03,42,0.00
2021,10,01,03,43,0.00
2021,10,01,03,44,0.00
2021,10,01,03,45,0.00
2021,10,01,03,46,0.00
2021,10,01,03,47,0.00
2021,10,01,03,48,0.00
2021,10,01,03,49,0.00
2021,10,01,03,50,0.00
2021,10,01,03,51,0.00
2021,10,01,03,52,0.00
2021,10,01,03,53,0.00
2021,10,01,03,54,0.00
2021,10,01,03,55,0.00
2021,10,01,03,56,0.00
2021,10,01,03,57,0.00
2021,10,01,03,58,0.00
2021,10,01,03,59,0.00
2021,10,01,04,00,0.00
2021,10,01,04,01,0.00
2021,10,01,04,02,0.00
2021,10,01,04,03,0.00
2021,10,01,04,04,0.00
2021,10,01,04,05,0.00
2021,10,01,04,06,0.00
2021,10,01,04,07,0.00
2021,10,01,04,08,0.00
2021,10,01,04,09,0.00
2021,10,01,04,10,0.00
2021,10,01,04,11,0.00
2021,10,01,04,12,0.00
2021,10,01,04,13,0.00
2021,10,01,04,14,0.00
2021,10,01,04,15,0.00
2021,10,01,04,16,0.00
2021,10,01,04,17,0.00
2021,10,01,04,18,0.00
2021,10,01,04,19,0.00
2021,10,01,04,20,0.00
2021,10,01,04,21,0.00
2021,10,01,04,22,0.00
2021,10,01,04,23,0.00
2021,10,01,04,24,0.00
2021,10,01,04,25,0.00
2021,10,01,04,26,0.00
2021,10,01,04,27,0.00
2021,10,01,04,28,0.00
2021,10,01,04,29,0.00
2021,10,01,04,30,0.00
2021,10,01,04,31,0.00
2021,10,01,04,32,0.00
2021,10,01,04,33,0.00
2021,10,01,04,34,0.00
2021,10,01,04,35,0.00
2021,10,01,04,36,0.00
2021,10,01,04,37,0.00
2021,10,01,04,38,0.00
2021,10,01,04,39,0.00
2021,10,01,04,40,0.00
2021,10,01,04,41,0.00
2021,10,01,04,42,0.00
2021,10,01,04,43,0.00
2021,10,01,04,44,0.00
2021,10,01,04,45,0.00
2021,10,01,04,46,0.00
2021,10,01,04,47,0.00
2021,10,01,04,48,0.00
2021,10,01,04,49,0.00
2021,10,01,04,50,0.00
2021,10,01,04,51,0.00
2021,10,01,04,52,0.00
2021,10,01,04,53,0.00
2021,10,01,04,54,0.00
2021,10,01,04,55,0.00
2021,10,01,04,56,0.00
2021,10,01,04,57,0.00
2021,10,01,04,58,0.00
2021,10,01,04,59,0.00
2021,10,01,05,00,0.00
2021,10,01,05,01,0.00
2021,10,01,05,02,0.00
2021,10,01,05,03,0.00
2021,10,01,05,04,0.00
2021,10,01,05,05,0.00
2021,10,01,05,06,0.00
2021,10,01,05,07,0.00
2021,10,01,05,08,0.00
2021,10,01,05,09,0.00
2021,10,01,05,10,0.00
2021,10,01,05,11,0.00
2021,10,01,05,12,0.00
2021,10,01,05,13,0.00
2021,10,01,05,14,0.00
2021,10,01,05,15,0.00
2021,10,01,05,16,0.00
2021,10,01,05,17,0.00
2021,10,01,05,18,0.00
2021,10,01,05,19,0.00
2021,10,01,05,20,0.00
2021,10,01,05,21,0.00
2021,10,01,05,22,0.00
2021,10,01,05,23,0.00
2021,10,01,05,24,0.00
2021,10,01,05,25,0.00
2021,10,01,05,26,0.00
2021,10,01,05,27,0.00
2021,10,01,05,28,0.00
2021,10,01,05,29,0.00
2021,10,01,05,30,0.00
2021,10,01,05,31,0.00
2021,10,01,05,32,0.00
2021,10,01,05,33,0.00
2021,10,01,05,34,0.00
2021,10,01,05,35,0.00
2021,10,01,05,36,0.00
2021,10,01,05,37,0.00
2021,10,01,05,38,0.00
2021,10,01,05,39,0.00
2021,10,01,05,40,0.00
2021,10,01,05,41,0.00
2021,10,01,05,42,0.00
2021,10,01,05,43,0.00
2021,10,01,05,44,0.00
2021,10,01,05,45,0.00
2021,10,01,05,46,0.00
2021,10,01,05,47,0.00
2021,10,01,05,48,0.00
2021,10,01,05,49,0.00
2021,10,01,05,50,0.00
2021,10,01,05,51,0.00
2021,10,01,05,52,0.00
2021,10,01,05,53,0.00
2021,10,01,05,54,0.00
2021,10,01,05,55,0.00
2021,10,01,05,56,0.00
2021,10,01,05,57,0.00
2021,10,01,05,58,0.00
2021,10,01,05,59,0.00
2021,10,01,06,00,0.00
2021,10,01,06,01,0.00
2021,10,01,06,02,0.00
2021,10,01,06,03,0.00
2021,10,01,06,04,0.00
2021,10,01,06,05,0.00
2021,10,01,06,06,0.00
2021,10,01,06,07,0.00
2021,10,01,06,08,0.00
2021,10,01,06,09,0.00
2021,10,01,06,10,0.00
2021,10,01,06,11,0.00
2021,10,01,06,12,0.00
2021,10,01,06,13,0.00
2021,10,01,06,14,0.00
2021,10,01,06,15,0.00
2021,10,01,06,16,0.00
2021,10,01,06,17,0.00
2021,10,01,06,18,0.00
2021,10,01,06,19,0.00
2021,10,01,06,20,0.00
2021,10,01,06,21,0.00
2021,10,01,06,22,0.00
2021,10,01,06,23,0.00
2021,10,01,06,24,0.00
2021,10,01,06,25,0.00
2021,10,01,06,26,0.00
2021,10,01,06,27,0.00
2021,10,01,06,28,0.00
2021,10,01,06,29,0.00
2021,10,01,06,30,0.00
2021,10,01,06,31,0.00
2021,10,01,06,32,0.00
2021,10,01,06,33,0.00
2021,10,01,06,34,0.00
2021,10,01,06,35,0.00
2021,10,01,06,36,0.00
2021,10,01,06,37,0.00
2021,10,01,06,38,0.00
2021,10,01,06,39,0.00
2021,10,01,06,40,0.00
2021,10,01,06,41,0.00
2021,10,01,06,42,0.00
2021,10,01,06,43,0.00
2021,10,01,06,44,0.00
2021,10,01,06,45,0.00
2021,10,01,06,46,0.00
2021,10,01,06,47,0.00
2021,10,01,06,48,0.00
2021,10,01,06,49,0.00
2021,10,01,06,50,0.00
2021,10,01,06,51,0.00
2021,10,01,06,52,0.00
2021,10,01,06,53,0.00
2021,10,01,06,54,0.00
2021,10,01,06,55,0.00
2021,10,01,06,56,0.00
2021,10,01,06,57,0.00
2021,10,01,06,58,0.00
2021,10,01,06,59,0.00
2021,10,01,07,00,0.00
2021,10,01,07,01,0.00
2021,10,01,07,02,0.00
2021,10,01,07,03,0.00
2021,10,01,07,04,0.00
2021,10,01,07,05,0.00
2021,10,01,07,06,0.00
2021,10,01,07,07,0.00
2021,10,01,07,08,0.00
2021,10,01,07,09,0.00
2021,10,01,07,10,3.90
2021,10,01,07,11,5.00
2021,10,01,07,12,5.00
2021,10,01,07,13,5.00
2021,10,01,07,14,6.00
2021,10,01,07,15,7.00
2021,10,01,07,16,7.00
2021,10,01,07,17,7.20
2021,10,01,07,18,9.00
2021,10,01,07,19,9.00
2021,10,01,07,20,10.10
2021,10,01,07,21,11.00
2021,10,01,07,22,11.90
2021,10,01,07,23,12.30
2021,10,01,07,24,14.50
2021,10,01,07,25,16.00
2021,10,01,07,26,17.20
2021,10,01,07,27,18.80
2021,10,01,07,28,20.70
2021,10,01,07,29,23.40
2021,10,01,07,30,25.30
2021,10,01,07,31,26.90
2021,10,01,07,32,29.20
2021,10,01,07,33,31.50
2021,10,01,07,34,33.00
2021,10,01,07,35,35.30
2021,10,01,07,36,37.60
2021,10,01,07,37,39.50
2021,10,01,07,38,41.20
2021,10,01,07,39,43.60
2021,10,01,07,40,45.90
2021,10,01,07,41,47.50
2021,10,01,07,42,49.70
2021,10,01,07,43,52.00
2021,10,01,07,44,53.70
2021,10,01,07,45,55.60
2021,10,01,07,46,59.90
2021,10,01,07,47,62.20
2021,10,01,07,48,63.70
2021,10,01,07,49,66.00
2021,10,01,07,50,68.30
2021,10,01,07,51,69.80
2021,10,01,07,52,73.80
2021,10,01,07,53,76.20
2021,10,01,07,54,77.80
2021,10,01,07,55,81.00
2021,10,01,07,56,83.70
2021,10,01,07,57,85.60
2021,10,01,07,58,88.20
2021,10,01,07,59,90.20
2021,10,01,08,00,92.70
2021,10,01,08,01,96.10
2021,10,01,08,02,97.70
2021,10,01,08,03,99.70
2021,10,01,08,04,101.90
2021,10,01,08,05,103.00
2021,10,01,08,06,105.90
2021,10,01,08,07,108.10
2021,10,01,08,08,110.50
2021,10,01,08,09,112.70
2021,10,01,08,10,114.30
2021,10,01,08,11,116.60
2021,10,01,08,12,118.90
2021,10,01,08,13,120.60
2021,10,01,08,14,122.50
2021,10,01,08,15,124.90
2021,10,01,08,16,128.40
2021,10,01,08,17,130.70
2021,10,01,08,18,133.00
2021,10,01,08,19,134.60
2021,10,01,08,20,136.40
2021,10,01,08,21,138.90
2021,10,01,08,22,141.00
2021,10,01,08,23,142.00
2021,10,01,08,24,145.00
2021,10,01,08,25,147.30
2021,10,01,08,26,148.00
2021,10,01,08,27,151.10
2021,10,01,08,28,153.40
2021,10,01,08,29,155.30
2021,10,01,08,30,156.00
2021,10,01,08,31,158.60
2021,10,01,08,32,162.50
2021,10,01,08,33,165.10
2021,10,01,08,34,167.50
2021,10,01,08,35,169.80
2021,10,01,08,36,171.50
2021,10,01,08,37,173.40
2021,10,01,08,38,177.30
2021,10,01,08,39,179.20
2021,10,01,08,40,181.50
2021,10,01,08,41,183.90
2021,10,01,08,42,185.00
2021,10,01,08,43,185.70
2021,10,01,08,44,187.70
2021,10,01,08,45,190.30
2021,10,01,08,46,192.30
2021,10,01,08,47,193.90
2021,10,01,08,48,197.30
2021,10,01,08,49,199.00
2021,10,01,08,50,201.60
2021,10,01,08,51,204.30
2021,10,01,08,52,206.30
2021,10,01,08,53,207.90
2021,10,01,08,54,210.20
2021,10,01,08,55,212.50
2021,10,01,08,56,215.70
2021,10,01,08,57,218.30
2021,10,01,08,58,220.40
2021,10,01,08,59,221.90
2021,10,01,09,00,225.40
2021,10,01,09,01,228.50
2021,10,01,09,02,229.90
2021,10,01,09,03,230.50
2021,10,01,09,04,232.80
2021,10,01,09,05,235.40
2021,10,01,09,06,238.20
2021,10,01,09,07,240.60
2021,10,01,09,08,243.10
2021,10,01,09,09,246.00
2021,10,01,09,10,247.50
2021,10,01,09,11,250.50
2021,10,01,09,12,251.00
2021,10,01,09,13,252.60
2021,10,01,09,14,255.00
2021,10,01,09,15,257.30
2021,10,01,09,16,259.60
2021,10,01,09,17,263.00
2021,10,01,09,18,264.70
2021,10,01,09,19,266.60
2021,10,01,09,20,269.20
2021,10,01,09,21,271.30
2021,10,01,09,22,272.80
2021,10,01,09,23,275.10
2021,10,01,09,24,277.40
2021,10,01,09,25,278.90
2021,10,01,09,26,281.20
2021,10,01,09,27,283.60
2021,10,01,09,28,285.90
2021,10,01,09,29,287.60
2021,10,01,09,30,289.50
2021,10,01,09,31,291.80
2021,10,01,09,32,294.10
2021,10,01,09,33,295.70
2021,10,01,09,34,298.90
2021,10,01,09,35,301.60
2021,10,01,09,36,303.50
2021,10,01,09,37,305.80
2021,10,01,09,38,308.20
2021,10,01,09,39,310.40
2021,10,01,09,40,314.00
2021,10,01,09,41,315.00
2021,10,01,09,42,315.80
2021,10,01,09,43,318.00
2021,10,01,09,44,322.20
2021,10,01,09,45,323.00
2021,10,01,09,46,324.90
2021,10,01,09,47,328.20
2021,10,01,09,48,329.80
2021,10,01,09,49,332.10
2021,10,01,09,50,334.50
2021,10,01,09,51,336.80
2021,10,01,09,52,339.60
2021,10,01,09,53,343.60
2021,10,01,09,54,349.00
2021,10,01,09,55,378.60
2021,10,01,09,56,339.00
2021,10,01,09,57,235.30
2021,10,01,09,58,242.40
2021,10,01,09,59,239.30
2021,10,01,10,00,248.30
2021,10,01,10,01,263.20
2021,10,01,10,02,267.40
2021,10,01,10,03,236.10
2021,10,01,10,04,225.90
2021,10,01,10,05,218.60
2021,10,01,10,06,214.30
2021,10,01,10,07,211.80
2021,10,01,10,08,196.40
2021,10,01,10,09,194.20
2021,10,01,10,10,192.40
2021,10,01,10,11,197.00
2021,10,01,10,12,195.50
2021,10,01,10,13,200.80
2021,10,01,10,14,192.30
2021,10,01,10,15,191.60
2021,10,01,10,16,203.80
2021,10,01,10,17,207.00
2021,10,01,10,18,196.20
2021,10,01,10,19,209.40
2021,10,01,10,20,206.80
2021,10,01,10,21,195.70
2021,10,01,10,22,195.10
2021,10,01,10,23,191.70
2021,10,01,10,24,181.00
2021,10,01,10,25,157.80
2021,10,01,10,26,140.00
2021,10,01,10,27,170.50
2021,10,01,10,28,200.90
2021,10,01,10,29,187.60
2021,10,01,10,30,148.30
2021,10,01,10,31,140.00
2021,10,01,10,32,165.70
2021,10,01,10,33,203.50
2021,10,01,10,34,174.70
2021,10,01,10,35,150.60
2021,10,01,10,36,165.50
2021,10,01,10,37,206.00
2021,10,01,10,38,228.80
2021,10,01,10,39,216.00
2021,10,01,10,40,208.40
2021,10,01,10,41,192.90
2021,10,01,10,42,196.10
2021,10,01,10,43,183.20
2021,10,01,10,44,170.20
2021,10,01,10,45,183.90
2021,10,01,10,46,219.90
2021,10,01,10,47,214.60
2021,10,01,10,48,187.70
2021,10,01,10,49,163.00
2021,10,01,10,50,166.10
2021,10,01,10,51,197.70
2021,10,01,10,52,223.60
2021,10,01,10,53,221.80
2021,10,01,10,54,211.20
2021,10,01,10,55,204.10
2021,10,01,10,56,213.30
2021,10,01,10,57,225.30
2021,10,01,10,58,235.20
2021,10,01,10,59,232.50
2021,10,01,11,00,228.60
2021,10,01,11,01,224.90
2021,10,01,11,02,219.40
2021,10,01,11,03,213.70
2021,10,01,11,04,202.00
2021,10,01,11,05,174.50
2021,10,01,11,06,173.40
2021,10,01,11,07,187.60
2021,10,01,11,08,221.50
2021,10,01,11,09,250.10
2021,10,01,11,10,256.60
2021,10,01,11,11,272.80
2021,10,01,11,12,255.30
2021,10,01,11,13,250.40
2021,10,01,11,14,254.50
2021,10,01,11,15,267.10
2021,10,01,11,16,272.00
2021,10,01,11,17,267.30
2021,10,01,11,18,221.20
2021,10,01,11,19,223.00
2021,10,01,11,20,221.60
2021,10,01,11,21,221.60
2021,10,01,11,22,221.00
2021,10,01,11,23,221.00
2021,10,01,11,24,356.00
2021,10,01,11,25,674.60
2021,10,01,11,26,678.40
2021,10,01,11,27,669.30
2021,10,01,11,28,673.50
2021,10,01,11,29,684.40
2021,10,01,11,30,687.00
2021,10,01,11,31,687.00
2021,10,01,11,32,406.80
2021,10,01,11,33,220.00
2021,10,01,11,34,213.10
2021,10,01,11,35,200.00
2021,10,01,11,36,189.30
2021,10,01,11,37,179.10
2021,10,01,11,38,171.00
2021,10,01,11,39,167.50
2021,10,01,11,40,166.80
2021,10,01,11,41,163.30
2021,10,01,11,42,166.20
2021,10,01,11,43,171.20
2021,10,01,11,44,175.20
2021,10,01,11,45,181.50
2021,10,01,11,46,192.70
2021,10,01,11,47,207.50
2021,10,01,11,48,217.20
2021,10,01,11,49,240.20
2021,10,01,11,50,260.30
2021,10,01,11,51,317.60
2021,10,01,11,52,301.60
2021,10,01,11,53,299.00
2021,10,01,11,54,299.00
2021,10,01,11,55,299.00
2021,10,01,11,56,299.00
2021,10,01,11,57,299.00
2021,10,01,11,58,323.90
2021,10,01,11,59,325.00
2021,10,01,12,00,325.00
2021,10,01,12,01,323.20
2021,10,01,12,02,322.00
2021,10,01,12,03,322.00
2021,10,01,12,04,322.00
2021,10,01,12,05,304.90
2021,10,01,12,06,262.00
2021,10,01,12,07,509.50
2021,10,01,12,08,729.90
2021,10,01,12,09,675.00
2021,10,01,12,10,678.50
2021,10,01,12,11,759.40
2021,10,01,12,12,703.00
2021,10,01,12,13,449.80
2021,10,01,12,14,290.30
2021,10,01,12,15,383.10
2021,10,01,12,16,329.00
2021,10,01,12,17,329.00
2021,10,01,12,18,512.50
2021,10,01,12,19,729.40
2021,10,01,12,20,755.40
2021,10,01,12,21,782.60
2021,10,01,12,22,784.00
2021,10,01,12,23,633.70
2021,10,01,12,24,296.30
2021,10,01,12,25,318.20
2021,10,01,12,26,281.60
2021,10,01,12,27,209.40
2021,10,01,12,28,190.40
2021,10,01,12,29,211.00
2021,10,01,12,30,437.40
2021,10,01,12,31,637.20
2021,10,01,12,32,634.60
2021,10,01,12,33,650.00
2021,10,01,12,34,681.40
2021,10,01,12,35,703.00
2021,10,01,12,36,703.00
2021,10,01,12,37,383.00
2021,10,01,12,38,259.00
2021,10,01,12,39,267.00
2021,10,01,12,40,267.00
2021,10,01,12,41,267.00
2021,10,01,12,42,467.90
2021,10,01,12,43,652.00
2021,10,01,12,44,597.00
2021,10,01,12,45,650.20
2021,10,01,12,46,637.20
2021,10,01,12,47,636.20
2021,10,01,12,48,640.80
2021,10,01,12,49,643.00
2021,10,01,12,50,652.20
2021,10,01,12,51,656.20
2021,10,01,12,52,652.00
2021,10,01,12,53,661.50
2021,10,01,12,54,630.70
2021,10,01,12,55,658.90
2021,10,01,12,56,692.70
2021,10,01,12,57,718.30
2021,10,01,12,58,715.00
2021,10,01,12,59,715.00
2021,10,01,13,00,711.90
2021,10,01,13,01,650.50
2021,10,01,13,02,634.10
2021,10,01,13,03,656.00
2021,10,01,13,04,520.50
2021,10,01,13,05,257.10
2021,10,01,13,06,290.20
2021,10,01,13,07,318.00
2021,10,01,13,08,318.00
2021,10,01,13,09,371.90
2021,10,01,13,10,595.70
2021,10,01,13,11,589.50
2021,10,01,13,12,572.70
2021,10,01,13,13,574.50
2021,10,01,13,14,550.40
2021,10,01,13,15,553.00
2021,10,01,13,16,577.90
2021,10,01,13,17,563.50
2021,10,01,13,18,540.00
2021,10,01,13,19,540.00
2021,10,01,13,20,554.20
2021,10,01,13,21,555.00
2021,10,01,13,22,555.00
2021,10,01,13,23,555.00
2021,10,01,13,24,555.00
2021,10,01,13,25,284.00
2021,10,01,13,26,227.00
2021,10,01,13,27,335.30
2021,10,01,13,28,588.80
2021,10,01,13,29,593.90
2021,10,01,13,30,632.30
2021,10,01,13,31,647.40
2021,10,01,13,32,649.00
2021,10,01,13,33,646.40
2021,10,01,13,34,632.20
2021,10,01,13,35,621.40
2021,10,01,13,36,614.60
2021,10,01,13,37,602.40
2021,10,01,13,38,586.70
2021,10,01,13,39,599.70
2021,10,01,13,40,627.40
2021,10,01,13,41,647.40
2021,10,01,13,42,661.50
2021,10,01,13,43,666.00
2021,10,01,13,44,666.00
2021,10,01,13,45,666.00
2021,10,01,13,46,667.90
2021,10,01,13,47,656.00
2021,10,01,13,48,647.00
2021,10,01,13,49,610.10
2021,10,01,13,50,635.10
2021,10,01,13,51,636.90
2021,10,01,13,52,657.80
2021,10,01,13,53,633.10
2021,10,01,13,54,622.00
2021,10,01,13,55,585.40
2021,10,01,13,56,177.80
2021,10,01,13,57,154.50
2021,10,01,13,58,150.70
2021,10,01,13,59,155.00
2021,10,01,14,00,155.00
2021,10,01,14,01,196.60
2021,10,01,14,02,613.00
2021,10,01,14,03,436.20
2021,10,01,14,04,165.50
2021,10,01,14,05,179.00
2021,10,01,14,06,179.00
2021,10,01,14,07,179.00
2021,10,01,14,08,179.00
2021,10,01,14,09,179.00
2021,10,01,14,10,173.30
2021,10,01,14,11,164.80
2021,10,01,14,12,163.00
2021,10,01,14,13,166.30
2021,10,01,14,14,177.50
2021,10,01,14,15,184.00
2021,10,01,14,16,197.30
2021,10,01,14,17,211.40
2021,10,01,14,18,220.10
2021,10,01,14,19,198.60
2021,10,01,14,20,188.30
2021,10,01,14,21,185.00
2021,10,01,14,22,185.00
2021,10,01,14,23,168.30
2021,10,01,14,24,165.30
2021,10,01,14,25,179.40
2021,10,01,14,26,189.00
2021,10,01,14,27,198.30
2021,10,01,14,28,207.90
2021,10,01,14,29,216.30
2021,10,01,14,30,218.10
2021,10,01,14,31,221.50
2021,10,01,14,32,232.20
2021,10,01,14,33,243.50
2021,10,01,14,34,236.40
2021,10,01,14,35,239.00
2021,10,01,14,36,276.20
2021,10,01,14,37,315.80
2021,10,01,14,38,452.00
2021,10,01,14,39,369.20
2021,10,01,14,40,319.90
2021,10,01,14,41,332.00
2021,10,01,14,42,564.50
2021,10,01,14,43,622.00
2021,10,01,14,44,658.00
2021,10,01,14,45,705.50
2021,10,01,14,46,691.90
2021,10,01,14,47,687.00
2021,10,01,14,48,692.10
2021,10,01,14,49,698.20
2021,10,01,14,50,686.00
2021,10,01,14,51,675.90
2021,10,01,14,52,672.20
2021,10,01,14,53,671.00
2021,10,01,14,54,687.20
2021,10,01,14,55,664.90
2021,10,01,14,56,632.90
2021,10,01,14,57,623.60
2021,10,01,14,58,628.80
2021,10,01,14,59,638.70
2021,10,01,15,00,655.20
2021,10,01,15,01,643.30
2021,10,01,15,02,619.00
2021,10,01,15,03,604.20
2021,10,01,15,04,584.50
2021,10,01,15,05,556.60
2021,10,01,15,06,560.60
2021,10,01,15,07,559.60
2021,10,01,15,08,561.00
2021,10,01,15,09,561.00
2021,10,01,15,10,496.50
2021,10,01,15,11,477.00
2021,10,01,15,12,453.50
2021,10,01,15,13,422.50
2021,10,01,15,14,400.70
2021,10,01,15,15,410.20
2021,10,01,15,16,372.70
2021,10,01,15,17,407.20
2021,10,01,15,18,427.00
2021,10,01,15,19,427.00
2021,10,01,15,20,427.00
2021,10,01,15,21,281.70
2021,10,01,15,22,209.00
2021,10,01,15,23,399.00
2021,10,01,15,24,402.00
2021,10,01,15,25,385.00
2021,10,01,15,26,398.60
2021,10,01,15,27,358.00
2021,10,01,15,28,332.00
2021,10,01,15,29,204.00
2021,10,01,15,30,239.20
2021,10,01,15,31,350.00
2021,10,01,15,32,371.00
2021,10,01,15,33,376.80
2021,10,01,15,34,360.00
2021,10,01,15,35,353.60
2021,10,01,15,36,393.60
2021,10,01,15,37,384.10
2021,10,01,15,38,369.00
2021,10,01,15,39,386.60
2021,10,01,15,40,362.50
2021,10,01,15,41,370.30
2021,10,01,15,42,345.00
2021,10,01,15,43,329.00
2021,10,01,15,44,326.70
2021,10,01,15,45,315.00
2021,10,01,15,46,304.70
2021,10,01,15,47,293.30
2021,10,01,15,48,300.60
2021,10,01,15,49,312.60
2021,10,01,15,50,326.20
2021,10,01,15,51,338.10
2021,10,01,15,52,330.40
2021,10,01,15,53,343.50
2021,10,01,15,54,340.80
2021,10,01,15,55,341.80
2021,10,01,15,56,325.30
2021,10,01,15,57,291.30
2021,10,01,15,58,300.40
2021,10,01,15,59,308.40
2021,10,01,16,00,332.00
2021,10,01,16,01,361.90
2021,10,01,16,02,340.60
2021,10,01,16,03,307.00
2021,10,01,16,04,306.50
2021,10,01,16,05,297.90
2021,10,01,16,06,309.00
2021,10,01,16,07,314.70
2021,10,01,16,08,320.60
2021,10,01,16,09,375.00
2021,10,01,16,10,336.60
2021,10,01,16,11,394.30
2021,10,01,16,12,364.80
2021,10,01,16,13,304.30
2021,10,01,16,14,311.00
2021,10,01,16,15,316.00
2021,10,01,16,16,279.20
2021,10,01,16,17,289.10
2021,10,01,16,18,291.70
2021,10,01,16,19,282.10
2021,10,01,16,20,271.20
2021,10,01,16,21,262.90
2021,10,01,16,22,232.80
2021,10,01,16,23,242.50
2021,10,01,16,24,257.00
2021,10,01,16,25,258.80
2021,10,01,16,26,252.60
2021,10,01,16,27,225.30
2021,10,01,16,28,238.40
2021,10,01,16,29,244.20
2021,10,01,16,30,242.40
2021,10,01,16,31,239.70
2021,10,01,16,32,231.30
2021,10,01,16,33,242.70
2021,10,01,16,34,243.40
2021,10,01,16,35,231.60
2021,10,01,16,36,213.50
2021,10,01,16,37,214.90
2021,10,01,16,38,213.70
2021,10,01,16,39,215.90
2021,10,01,16,40,220.90
2021,10,01,16,41,227.20
2021,10,01,16,42,219.30
2021,10,01,16,43,222.30
2021,10,01,16,44,233.90
2021,10,01,16,45,233.60
2021,10,01,16,46,232.00
2021,10,01,16,47,241.80
2021,10,01,16,48,242.00
2021,10,01,16,49,243.00
2021,10,01,16,50,244.00
2021,10,01,16,51,244.30
2021,10,01,16,52,246.50
2021,10,01,16,53,249.20
2021,10,01,16,54,234.20
2021,10,01,16,55,226.40
2021,10,01,16,56,241.50
2021,10,01,16,57,264.00
2021,10,01,16,58,268.20
2021,10,01,16,59,278.00
2021,10,01,17,00,276.80
2021,10,01,17,01,277.50
2021,10,01,17,02,284.00
2021,10,01,17,03,293.00
2021,10,01,17,04,298.30
2021,10,01,17,05,301.00
2021,10,01,17,06,299.80
2021,10,01,17,07,296.10
2021,10,01,17,08,294.10
2021,10,01,17,09,283.30
2021,10,01,17,10,274.20
2021,10,01,17,11,268.10
2021,10,01,17,12,261.90
2021,10,01,17,13,253.20
2021,10,01,17,14,243.10